Regional Weather Roundup
Issued by NWS

Home | Current Version | Previous Version | Graphics & Text | Print | Product List | Glossary Off
Versions: 1 2 3 4 5 6 7 8 9 10 11 12 13 14 15 16 17 18 19 20 21 22 23 24 25 26 27 28 29 30 31 32 33 34 35 36 37 38 39 40 41 42 43 44 45 46 47 48 49 50

430
ASUS43 KDMX 300208
RWRIA

WEATHER ROUNDUP FOR IOWA
NATIONAL WEATHER SERVICE DES MOINES IA
900 PM CDT FRI JUL 29 2016

NOTE: "FAIR" INDICATES FEW OR NO CLOUDS BELOW 12,000 FEET WITH NO
SIGNIFICANT WEATHER AND/OR OBSTRUCTIONS TO VISIBILITY.

* - THESE STATIONS ARE NOT NWS STATIONS...THUS NOT UNDER NWS
QUALITY CONTROL.  THEY ALSO DO NOT REPORT WEATHER SUCH
AS PRECIPITATION OR FOG.

IAZ001>003-012>014-020>022-031>034-043>046-300300-
   NORTHWEST IOWA

CITY           SKY/WX    TMP DP  RH WIND       PRES   REMARKS
CARROLL *      CLOUDY    70  63  78 N5        30.02S
CHEROKEE *     CLEAR     68  62  81 CALM      30.03R
DENISON *      MOCLDY    68  63  83 CALM      30.01S
LE MARS *      CLEAR     73  61  64 CALM      30.03S
SHELDON *      CLEAR     66  61  82 NE5       30.03S
SIOUX CITY     CLEAR     72  61  68 E5        30.02R
SPENCER        CLEAR     66  58  75 NE7       30.03S
STORM LAKE *   CLEAR     66  63  88 CALM      30.04R
$$

IAZ055>058-069>071-079>083-090>094-300300-
   SOUTHWEST IOWA

CITY           SKY/WX    TMP DP  RH WIND       PRES   REMARKS
ATLANTIC *     CLOUDY    70  64  83 N5        30.03R
CLARINDA *       N/A     70  64  83 MISG      30.02S
COUNCIL BLFS *   N/A     70  64  83 NE6       30.02S
CRESTON *      CLOUDY    68  64  88 N7        30.03R
HARLAN  *      CLEAR     66  63  88 NE5       30.06R
LAMONI         CLOUDY    68  64  87 N8        29.99S
RED OAK *      CLEAR     68  64  88 N5        30.01S
SHENANDOAH *   CLEAR     68  66  94 NE6       30.01R
$$

IAZ047>049-059>061-072>074-084-300300-
   CENTRAL IOWA

CITY           SKY/WX    TMP DP  RH WIND       PRES   REMARKS
AMES           MOCLDY    71  66  84 N9        30.00R
ANKENY *         N/A    N/A N/A N/A MISG        N/A
BOONE *        CLOUDY    70  66  88 N5        30.00S
CHARITON *       N/A    N/A N/A N/A MISG        N/A
DES MOINES     MOCLDY    70  64  81 NW3       29.98F
GRINNELL*      CLOUDY    68  64  88 NE5       30.00S
KNOXVILLE *    MOCLDY    68  64  88 NW5       29.98R
MARSHALLTOWN   CLOUDY    68  65  90 NE3       29.99S
NEWTON *       CLOUDY    70  66  88 N6        29.99S
PELLA *        CLOUDY    68  67  94 CALM      30.00R
PERRY *        CLOUDY    68  67  95 CALM      30.01S
$$

IAZ004>006-015-016-023>025-035-036-300300-
   NORTH CENTRAL IOWA

CITY           SKY/WX    TMP DP  RH WIND       PRES   REMARKS
ALGONA *       CLOUDY    70  64  83 N5        30.03S
ESTHERVILLE    CLEAR     65  58  78 N6        30.03S
FORT DODGE *   CLOUDY    68  63  83 CALM      30.02S
MASON CITY     CLOUDY    69  64  84 NE5       30.03S
FOREST CITY *  CLOUDY    68  63  83 NE3       30.02S
IOWA FALLS *   CLOUDY    69  65  86 NE3       30.01S
$$

IAZ007>011-017>019-026>030-037>042-050>054-066-300300-
   NORTHEAST IOWA

CITY           SKY/WX    TMP DP  RH WIND       PRES   REMARKS
CEDAR RAPIDS   MOCLDY    68  67  96 N6        29.96F
CHARLES CITY * CLOUDY    70  68  94 N3        30.02R
CLINTON *      CLEAR     67  66  97 N5        29.96S
DECORAH *      CLOUDY    66  66 100 E6        30.01S
DUBUQUE        LGT RAIN  68  66  93 NE8       29.99F FOG
MONTICELLO *   CLOUDY    70  66  88 N3        29.97S
OELWEIN *      CLOUDY    68  64  88 E6        30.01S
WATERLOO       MOCLDY    68  65  90 NE3       29.99R
$$

IAZ064-065-067-068-078-300300-
   EAST CENTRAL IOWA

CITY           SKY/WX    TMP DP  RH WIND       PRES   REMARKS
DAVENPORT      PTCLDY    67  65  93 NE6       29.95S
IOWA CITY      PTCLDY    70  66  87 N8        29.97S
MT. PLEASANT * PTCLDY    72  70  94 N7        29.95S
MUSCATINE *    CLOUDY    72  68  88 W7        29.95R
QUAD CITIES    PTCLDY    70  65  84 E7        29.94R
$$

IAZ062-063-075>077-085>089-095>099-300300-
   SOUTHEAST IOWA

CITY           SKY/WX    TMP DP  RH WIND       PRES   REMARKS
BURLINGTON     MOCLDY    71  67  87 NW7       29.94S
FAIRFIELD *    CLOUDY    68  66  94 NW6       29.96S
KEOKUK *       PTCLDY    72  66  83 NW3       29.94S
CENTERVILLE *    N/A     66  64  94 CALM      30.01R
OTTUMWA        MOCLDY    67  64  90 N5        29.98R
WASHINGTON *   CLOUDY    70  68  94 N7        29.96F
$$

ABBREVIATIONS USED IN REMARKS
   TC - TEMPERATURES IN CELSIUS
  WCI - WIND CHILL INDEX
   HX - HEAT INDEX
  VSB - VISIBILITY
$$





USA.gov is the U.S. government's official web portal to all federal, state and local government web resources and services.